Find Starlink 33834

NORAD ID: 63586 Int'l Des: 2025-076 Owner: SPXS Country: US Constellation: starlink operational
LEOCIRCULAR

現在のビュー

3D地球を読み込み中...

About Starlink 33834

Starlink 33834 (NORAD 63586) is a starlink constellation satellite (v2 mini) launched Apr 14, 2025 by SPXS of US. It operates in LEO, CIRCULAR orbit with a mass of 575.00 kg.

Starlink 33834について

説明を読み込み中...

次回通過

Passes for default location (London). Set your location on the main map for personalized predictions.

高度履歴

Loading altitude history...

軌道要素

1 63586U 25076T 26171.23904795 .00010096 00000-0 37585-3 0 9991
2 63586 42.9986 102.5769 0000879 279.4183 80.6569 15.27583199 67519
Epoch: Jun 20, 2026 • Age: 25 hours

現在のステータス

高度 495.3 km
速度 7.62 km/s
衛星直下点 -42.17°S, 14.74°E
打ち上げ日 Apr 14, 2025
運用期間 1.1 years
タイプ internet

技術仕様

分類 Payload
質量 575.00 kg
乾燥質量 530.00 kg
総質量 575.00 kg
長さ 0.30 m
直径 4.10 m
スパン 29.00 m
形状 Box + pan
製造者 SPXS
バスタイプ Starlink V2MO
フェーズステータス In Orbit
所有者/国 SPXS/US

Most Searched